This demonstration page uses our WeatherBlox Daily Observations layout. Learn more.

Left ArrowRight Arrow

Hourly Observations for April 24, 2021

Temp ( °F °C ) Dew Point ( °F °C ) Humidity (%) Winds ( mph kmh ) Pressure ( in mb ) Visibility ( mi km ) Precip ( " mm )
12:53 am 00:53 Clear 43 6.1 38 3.3 82 82 N 15 24 29.98 1015 10 16 0.00 0.00
1:53 am 01:53 Mostly Cloudy 40 4.4 37 2.8 89 89 NNE 13 20 29.99 1016 10 16 0.00 0.00
2:53 am 02:53 Cloudy 40 4.4 36 2.2 86 86 NNE 16 26 30.01 1016 10 16 0.00 0.00
4:53 am 04:53 Cloudy 40 4.4 36 2.2 86 86 N 9 15 30.04 1017 10 16 0.00 0.00
5:26 am 05:26 Mostly Cloudy 39 3.9 35 1.7 86 86 N 9 15 30.09 1019 10 16 0.00 0.00
5:53 am 05:53 Mostly Cloudy 39 3.9 35 1.7 86 86 N 13 20 30.05 1018 10 16 0.00 0.00
6:53 am 06:53 Mostly Cloudy 38 3.3 34 1.1 86 86 N 13 20 30.06 1018 10 16 0.00 0.00
7:53 am 07:53 Mostly Cloudy 39 3.9 33 0.6 79 79 N 15 24 30.08 1019 10 16 0.00 0.00
8:53 am 08:53 Partly Cloudy 42 5.6 34 1.1 73 73 N 16 26 30.07 1018 10 16 0.00 0.00
9:53 am 09:53 Sunny 45 7.2 34 1.1 66 66 N 16 26 30.08 1019 10 16 0.00 0.00
10:53 am 10:53 Sunny 47 8.3 34 1.1 61 61 NNE 10 17 30.08 1019 10 16 0.00 0.00
11:53 am 11:53 Sunny 51 10.6 34 1.1 52 52 N 12 19 30.08 1019 10 16 0.00 0.00
12:53 pm 12:53 Sunny 52 11.1 34 1.1 50 50 NNE 9 15 30.06 1018 10 16 0.00 0.00
1:53 pm 13:53 Sunny 54 12.2 34 1.1 47 47 Calm 30.05 1018 10 16 0.00 0.00
2:53 pm 14:53 Sunny 57 13.9 36 2.2 45 45 VRB 7 11 30.02 1017 10 16 0.00 0.00
3:53 pm 15:53 Sunny 58 14.4 35 1.7 42 42 Calm 30.00 1016 10 16 0.00 0.00
4:53 pm 16:53 Sunny 59 15 36 2.2 42 42 NNW 3 6 29.97 1015 10 16 0.00 0.00
5:53 pm 17:53 Sunny 58 14.4 35 1.7 42 42 Calm 29.96 1015 10 16 0.00 0.00
6:53 pm 18:53 Sunny 58 14.4 37 2.8 46 46 E 9 15 29.96 1014 10 16 0.00 0.00
7:53 pm 19:53 Sunny 55 12.8 37 2.8 51 51 ESE 7 11 29.96 1015 10 16 0.00 0.00
8:53 pm 20:53 Clear 54 12.2 37 2.8 53 53 ESE 6 9 29.96 1015 10 16 0.00 0.00
9:53 pm 21:53 Cloudy 55 12.8 36 2.2 49 49 ESE 10 17 29.96 1014 10 16 0.00 0.00
10:53 pm 22:53 Clear 54 12.2 36 2.2 51 51 ESE 8 13 29.96 1015 10 16 0.00 0.00
11:53 pm 23:53 Clear 52 11.1 36 2.2 55 55 ESE 12 19 29.95 1014 10 16 0.00 0.00

Powered by AerisWeather